Date,TemperatureHighF,TemperatureAvgF,TemperatureLowF,DewpointHighF,DewpointAvgF,DewpointLowF,HumidityHigh,HumidityAvg,HumidityLow,PressureMaxIn,PressureMinIn,WindSpeedMaxMPH,WindSpeedAvgMPH,GustSpeedMaxMPH,PrecipitationSumIn
2013-1-1,53.1,38.7,28.4,26.1,19.6,12.4,72,49,23,30.11,29.99,12,4,0,0.00
2013-1-2,51.6,37.1,26.6,15.5,12.7,9.3,59,39,20,30.11,29.94,14,7,0,0.00
2013-1-3,35.2,31.0,28.4,28.1,22.6,13.1,84,72,43,30.21,30.03,14,7,0,0.00
2013-1-4,39.9,31.7,27.5,29.5,24.9,22.2,84,76,66,30.23,30.13,9,3,0,0.10
2013-1-5,41.2,29.9,22.8,28.7,23.5,19.3,87,77,60,30.27,30.16,10,3,0,0.02
2013-1-6,52.3,36.5,21.9,31.2,24.1,18.1,86,64,35,30.29,29.98,9,4,0,0.01
2013-1-7,59.2,44.6,34.3,34.6,30.0,25.6,71,58,38,29.96,29.69,11,7,0,0.00
2013-1-8,62.1,47.5,37.8,35.3,28.8,20.4,76,51,25,29.92,29.68,8,4,0,0.00
2013-1-9,59.4,45.7,36.9,28.0,23.7,14.9,53,42,25,30.14,29.93,14,6,0,0.00
2013-1-10,61.9,44.2,29.8,35.9,28.4,21.2,72,55,33,29.95,29.74,9,3,0,0.00
2013-1-11,55.0,45.8,32.2,35.5,24.6,12.1,81,46,27,29.74,29.64,14,5,0,0.00
2013-1-12,45.3,36.1,28.2,12.8,7.3,-0.1,49,31,17,29.89,29.68,23,7,0,0.00
2013-1-13,45.1,32.4,18.5,13.0,4.4,-1.3,53,32,14,29.98,29.78,9,3,0,0.00
2013-1-14,46.4,31.8,23.2,21.9,10.3,-3.4,72,44,20,29.90,29.79,10,4,0,0.00
2013-1-15,41.9,29.4,22.6,12.6,3.6,-14.1,58,37,10,30.19,29.88,12,6,0,0.00
2013-1-16,51.1,32.2,17.4,7.3,1.0,-5.2,43,27,14,30.29,30.17,7,1,0,0.00
2013-1-17,58.6,41.8,24.3,22.8,13.7,4.1,49,33,17,30.38,30.21,13,6,0,0.00
2013-1-18,67.3,46.1,29.1,26.2,18.7,13.0,64,38,12,30.25,30.06,9,4,0,0.00
2013-1-19,68.5,46.4,28.8,22.8,18.2,13.3,55,35,14,30.20,30.06,8,4,0,0.00
2013-1-20,71.6,48.0,31.3,16.5,11.4,1.1,46,27,7,30.15,29.97,10,3,0,0.00
2013-1-21,71.8,50.2,36.7,12.7,6.8,-8.4,31,20,4,30.11,29.97,14,6,0,0.00
2013-1-22,73.8,51.5,38.7,15.5,9.3,1.5,32,20,6,30.15,30.03,10,4,0,0.00
2013-1-23,75.9,54.6,34.3,21.3,13.0,-0.2,39,23,6,30.24,30.09,6,2,0,0.00
2013-1-24,75.7,57.3,39.4,32.3,22.8,15.9,39,28,13,30.17,30.02,9,3,0,0.00
2013-1-25,69.4,55.9,48.2,44.1,38.1,32.5,61,52,39,30.14,29.99,6,1,0,0.00
2013-1-26,68.4,57.4,48.0,47.3,42.7,38.1,70,59,42,29.99,29.81,10,3,0,0.00
2013-1-27,68.0,56.7,48.7,47.9,43.5,39.0,82,63,41,29.93,29.80,14,3,0,0.00
2013-1-28,68.0,55.9,41.2,42.0,36.0,32.0,83,50,27,29.84,29.66,18,6,0,0.00
2013-1-29,49.6,41.2,36.7,34.6,21.1,11.3,65,46,26,29.88,29.66,34,14,0,0.00
2013-1-30,54.0,42.1,31.6,20.5,11.7,0.0,54,32,11,30.12,29.88,18,6,0,0.00
2013-1-31,63.9,43.6,25.9,19.8,15.8,10.7,53,35,16,30.16,30.04,6,2,0,0.00
2013-2-1,68.5,49.3,30.6,19.2,15.2,10.9,48,29,11,30.14,30.00,9,3,0,0.00
2013-2-2,73.4,52.8,35.8,19.2,13.3,5.6,39,23,8,30.23,30.08,12,4,0,0.00
2013-2-3,67.8,53.5,41.7,31.5,17.4,12.3,43,25,13,30.14,29.81,8,3,0,0.00
2013-2-4,68.0,53.7,47.8,35.1,31.4,29.1,53,43,28,29.92,29.79,10,3,0,0.00
2013-2-5,73.8,56.0,39.0,31.9,28.3,23.8,64,38,17,29.93,29.78,11,2,0,0.00
2013-2-6,70.7,56.0,42.1,32.0,28.1,21.6,55,37,17,29.86,29.72,14,4,0,0.00
2013-2-7,61.5,49.3,42.1,34.3,27.5,17.7,59,44,20,29.97,29.84,8,4,0,0.00
2013-2-8,70.7,56.2,43.2,30.9,24.9,13.9,49,32,12,29.96,29.66,17,6,0,0.00
2013-2-9,65.3,50.7,41.5,26.5,17.5,6.4,43,28,10,29.80,29.56,30,9,0,0.00
2013-2-10,58.8,45.3,35.1,20.0,13.0,5.8,45,29,13,29.87,29.74,14,4,0,0.00
2013-2-11,67.3,48.5,28.8,28.6,10.4,2.4,57,24,8,29.86,29.69,13,4,0,0.00
2013-2-12,56.5,43.1,34.0,31.5,13.7,-3.5,75,37,9,29.99,29.81,14,7,0,0.00
2013-2-13,58.1,43.6,26.1,13.7,8.2,4.2,44,25,12,30.05,29.89,12,4,0,0.00
2013-2-14,65.7,48.2,27.5,14.9,11.0,6.1,43,24,13,30.00,29.84,11,3,0,0.00
2013-2-15,63.7,48.8,36.9,30.2,22.2,10.9,58,36,23,30.21,29.99,12,4,0,0.00
2013-2-16,67.8,50.8,29.5,24.3,12.6,6.3,62,26,9,30.30,30.00,5,1,0,0.00
2013-2-17,73.4,56.5,33.8,12.8,0.3,-35.2,35,15,1,29.98,29.65,18,5,0,0.00
2013-2-18,67.5,56.6,43.5,11.3,-0.7,-37.2,22,11,1,29.92,29.72,16,6,0,0.00
2013-2-19,58.8,49.0,41.0,44.5,21.5,-1.3,87,44,13,29.89,29.67,11,4,0,0.33
2013-2-20,61.9,46.8,36.1,42.2,32.5,18.7,87,62,20,29.66,29.38,24,8,0,0.00
2013-2-21,52.7,41.0,31.3,24.8,22.4,19.1,68,49,28,29.82,29.63,22,10,0,0.00
2013-2-22,57.9,45.3,32.4,26.9,22.3,18.2,67,43,21,29.91,29.77,19,6,0,0.00
2013-2-23,64.8,49.3,30.6,23.0,18.6,11.8,56,32,16,29.94,29.61,8,4,0,0.00
2013-2-24,64.4,47.8,34.7,22.8,16.3,4.0,46,30,11,29.74,29.41,28,10,0,0.00
2013-2-25,56.5,42.9,28.6,15.6,10.1,4.7,46,28,15,29.94,29.75,13,5,0,0.00
2013-2-26,67.1,52.3,36.1,13.0,-5.6,-41.9,33,14,1,29.88,29.64,22,10,0,0.00
2013-2-27,60.1,48.9,34.3,12.3,0.4,-40.8,32,15,1,30.13,29.90,14,6,0,0.00
2013-2-28,63.5,47.5,32.4,18.9,9.4,-1.8,46,24,7,30.18,30.06,10,4,0,0.00
2013-3-1,72.0,53.4,35.6,8.8,3.0,-4.6,27,14,5,30.23,30.09,9,4,0,0.00
2013-3-2,77.0,59.9,36.9,16.5,10.9,0.0,37,16,5,30.27,30.03,7,3,0,0.00
2013-3-3,82.4,62.3,38.7,18.2,-7.1,-35.1,38,14,1,30.04,29.72,17,6,0,0.00
2013-3-4,79.9,65.7,50.2,28.0,8.4,-32.1,22,12,1,29.90,29.60,25,8,0,0.00
2013-3-5,66.2,53.6,41.5,28.1,23.9,17.6,50,33,20,30.20,29.91,18,8,0,0.00
2013-3-6,83.3,63.3,46.9,25.5,22.2,17.0,37,23,10,30.06,29.82,14,5,0,0.00
2013-3-7,84.2,66.9,52.0,25.7,19.3,6.5,34,18,6,29.89,29.74,16,5,0,0.00
2013-3-8,71.8,63.4,54.5,45.7,36.7,19.0,52,38,17,29.84,29.64,18,6,0,0.00
2013-3-9,62.1,51.3,43.3,37.1,26.6,18.0,61,41,19,29.83,29.65,28,11,0,0.00
2013-3-10,62.2,47.7,34.7,31.2,23.9,18.7,69,42,20,30.02,29.82,11,3,0,0.00
2013-3-11,70.2,53.3,35.8,24.0,17.0,9.8,44,26,11,30.06,29.86,18,4,0,0.00
2013-3-12,79.3,59.6,38.8,23.9,14.0,4.4,38,19,6,30.10,29.90,13,5,0,0.00
2013-3-13,81.0,63.2,44.6,24.3,11.7,-30.2,40,19,1,30.22,30.02,9,4,0,0.00
2013-3-14,90.1,66.6,47.3,15.4,-0.6,-29.1,24,11,1,30.17,29.98,9,3,0,0.00
2013-3-15,90.7,68.8,48.4,16.3,-8.1,-35.8,23,8,1,30.02,29.77,8,3,0,0.00
2013-3-16,87.8,70.4,52.9,13.2,-5.4,-31.8,15,7,1,29.79,29.58,17,6,0,0.00
2013-3-17,81.3,70.1,57.0,14.1,3.2,-29.7,16,8,1,29.76,29.57,21,9,0,0.00
2013-3-18,81.1,66.6,55.9,25.4,8.8,-30.2,20,12,1,29.89,29.72,14,6,0,0.00
2013-3-19,81.9,65.6,48.7,18.3,11.2,2.7,23,13,5,29.94,29.75,18,5,0,0.00
2013-3-20,73.6,61.8,49.3,36.5,29.3,17.6,48,31,18,30.08,29.74,18,6,0,0.00
2013-3-21,83.3,68.7,52.0,31.9,17.9,-28.2,39,19,1,29.73,29.51,19,6,0,0.00
2013-3-22,79.5,68.4,54.7,28.0,20.4,12.8,30,17,9,29.66,29.46,21,8,0,0.00
2013-3-23,75.4,64.6,52.3,25.6,-1.9,-45.5,31,13,1,29.81,29.60,29,11,0,0.00
2013-3-24,70.3,51.1,33.6,2.7,-17.2,-53.2,23,8,1,30.01,29.71,14,6,0,0.00
2013-3-25,64.2,50.9,37.2,8.5,2.8,-7.2,22,14,7,30.05,29.77,17,7,0,0.00
2013-3-26,74.5,56.2,39.6,15.0,9.4,3.5,27,17,7,30.09,29.84,14,8,0,0.00
2013-3-27,85.5,65.2,49.1,23.9,16.3,-25.6,28,17,1,29.95,29.80,13,4,0,0.00
2013-3-28,86.7,69.6,51.8,28.2,21.3,15.7,30,17,8,29.98,29.83,12,3,0,0.00
2013-3-29,89.8,73.2,55.2,26.7,7.2,-27.3,25,11,1,29.98,29.82,11,4,0,0.00
2013-3-30,89.8,72.4,51.3,22.2,5.5,-26.5,22,10,1,29.96,29.77,12,4,0,0.00
2013-3-31,88.9,71.6,56.5,25.4,18.0,7.4,26,15,5,29.91,29.76,10,3,0,0.00
2013-4-1,89.4,71.7,53.6,32.5,9.4,-31.4,44,15,1,29.89,29.68,17,5,0,0.00
2013-4-2,84.6,70.7,55.6,22.7,4.0,-34.6,24,10,1,29.79,29.59,14,5,0,0.00
2013-4-3,79.2,62.3,43.9,37.0,29.8,-1.8,63,34,7,29.96,29.75,14,5,0,0.00
2013-4-4,88.0,67.6,47.5,33.7,17.9,-28.9,54,22,1,30.06,29.88,10,3,0,0.00
2013-4-5,88.2,71.8,55.0,25.8,2.2,-30.3,24,10,1,29.92,29.67,13,5,0,0.00
2013-4-6,86.4,73.1,59.0,26.6,14.0,-26.6,23,13,1,29.86,29.66,17,6,0,0.00
2013-4-7,86.5,73.9,60.4,23.6,15.2,-26.8,19,12,1,29.78,29.56,17,7,0,0.00
2013-4-8,88.3,73.9,62.1,26.5,12.2,-28.1,25,11,1,29.62,29.30,23,8,0,0.00
2013-4-9,69.3,59.1,51.3,35.1,25.6,14.5,52,30,12,29.70,29.31,23,9,0,0.00
2013-4-10,69.6,57.7,46.0,31.2,22.8,11.4,49,28,12,29.79,29.65,14,6,0,0.00
2013-4-11,78.8,60.7,42.3,22.5,14.0,-2.5,43,20,4,29.79,29.60,14,5,0,0.00
2013-4-12,88.5,67.8,50.4,19.3,5.6,-27.9,26,12,1,29.74,29.57,8,3,0,0.00
2013-4-13,90.5,73.3,58.1,20.2,6.6,-28.7,19,10,1,29.67,29.52,17,6,0,0.00
2013-4-14,84.6,71.9,61.5,25.5,15.9,-27.1,19,13,1,29.65,29.48,22,11,0,0.00
2013-4-15,88.0,73.5,61.0,29.0,10.0,-27.5,28,13,1,29.69,29.55,22,9,0,0.00
2013-4-16,89.2,75.2,56.7,26.6,2.4,-29.9,23,9,1,29.73,29.56,14,7,0,0.00
2013-4-17,83.7,69.0,56.1,26.8,8.8,-28.7,23,12,1,29.76,29.48,27,10,0,0.00
2013-4-18,70.2,58.3,45.9,21.8,1.4,-41.9,35,16,1,29.99,29.76,12,6,0,0.00
2013-4-19,76.5,56.7,39.0,-0.7,-18.2,-42.6,15,6,1,30.12,29.84,14,4,0,0.00
2013-4-20,83.1,67.2,39.6,8.6,-18.6,-34.3,23,5,1,29.85,29.63,21,6,0,0.00
2013-4-21,88.7,71.6,52.5,14.2,-6.5,-31.6,16,7,1,29.95,29.75,10,4,0,0.00
2013-4-22,90.5,72.8,54.3,11.2,-9.8,-32.5,17,6,1,29.88,29.62,14,4,0,0.00
2013-4-23,90.0,74.5,56.8,26.5,-11.1,-32.2,31,6,1,29.87,29.60,18,7,0,0.00
2013-4-24,80.6,60.2,40.6,28.6,24.9,17.4,50,29,10,30.06,29.81,19,9,0,0.00
2013-4-25,90.1,70.4,54.5,39.2,21.6,-31.2,37,23,1,29.95,29.69,18,6,0,0.00
2013-4-26,88.9,73.2,56.3,23.4,-2.2,-33.0,25,8,1,29.98,29.79,16,5,0,0.00
2013-4-27,95.0,74.2,52.9,26.8,3.3,-31.2,32,11,1,30.01,29.79,10,3,0,0.00
2013-4-28,95.4,75.6,57.6,39.7,19.7,-23.8,36,16,1,29.87,29.67,8,4,0,0.00
2013-4-29,96.4,76.7,58.5,44.1,7.2,-32.5,42,15,1,29.75,29.55,12,4,0,0.00
2013-4-30,97.9,79.2,62.6,10.5,-10.6,-30.5,10,4,1,29.67,29.55,14,4,0,0.00
2013-5-1,93.6,79.8,68.7,16.7,-7.0,-31.9,12,5,1,29.82,29.62,15,6,0,0.00
2013-5-2,69.6,56.4,46.6,36.2,24.1,7.2,50,30,9,30.26,29.82,23,12,0,0.00
2013-5-3,73.9,55.4,40.5,21.6,11.1,-7.3,44,22,4,30.29,29.85,14,6,0,0.00
2013-5-4,92.7,69.6,48.6,13.2,0.7,-25.4,18,9,1,29.84,29.65,13,4,0,0.00
2013-5-5,88.3,72.4,57.6,21.0,15.9,9.0,19,12,8,29.93,29.71,23,7,0,0.00
2013-5-6,87.1,75.1,63.0,39.0,25.1,14.9,34,17,8,29.86,29.73,14,6,0,0.00
2013-5-7,84.7,72.3,61.5,31.0,23.7,11.9,24,17,7,29.90,29.71,14,7,0,0.00
2013-5-8,86.2,73.7,61.2,29.7,19.1,-5.5,27,14,3,29.88,29.73,17,6,0,0.00
2013-5-9,85.8,74.6,60.6,26.9,13.9,-26.1,24,12,1,29.86,29.73,22,6,0,0.00
2013-5-10,89.2,67.6,54.9,49.3,35.6,22.6,81,35,9,30.03,29.79,21,6,0,0.41
2013-5-11,79.5,58.1,49.8,47.9,44.8,42.2,75,63,32,30.12,30.00,11,6,0,0.22
2013-5-12,80.2,74.3,66.0,42.2,35.9,31.7,38,25,20,30.13,29.94,13,7,0,0.00
2013-5-13,86.0,72.3,56.5,39.8,33.8,28.0,46,26,13,30.12,29.91,12,5,0,0.00
2013-5-14,87.1,72.7,61.2,45.1,40.9,35.4,47,33,16,29.98,29.76,13,5,0,0.00
2013-5-15,94.6,79.0,62.4,43.6,35.9,30.3,42,23,13,29.86,29.66,23,7,0,0.00
2013-5-16,95.9,83.3,68.9,35.2,31.0,26.6,26,16,10,29.84,29.65,18,6,0,0.00
2013-5-17,95.7,81.4,65.5,33.0,29.5,22.6,27,16,10,29.79,29.65,13,4,0,0.00
2013-5-18,91.0,81.2,69.8,34.8,25.9,19.0,20,14,8,29.83,29.63,16,8,0,0.00
2013-5-19,91.0,78.6,66.0,33.4,26.2,20.6,23,15,9,29.80,29.58,21,7,0,0.00
2013-5-20,91.2,80.3,63.3,34.8,28.9,22.5,29,16,9,29.77,29.56,22,7,0,0.00
2013-5-21,91.9,76.2,60.8,34.7,27.0,20.2,31,17,9,29.85,29.67,11,5,0,0.00
2013-5-22,95.0,79.9,60.8,28.0,23.1,17.6,20,13,8,29.77,29.60,13,3,0,0.00
2013-5-23,97.5,82.5,65.1,51.3,32.8,20.3,50,19,10,29.81,29.60,21,5,0,0.00
2013-5-24,99.1,80.6,64.8,51.8,47.7,37.4,60,35,16,29.89,29.70,14,6,0,0.00
2013-5-25,99.7,83.5,70.0,56.5,44.1,26.2,57,31,8,29.87,29.69,11,4,0,0.00
2013-5-26,96.6,83.9,64.0,51.3,34.7,15.4,51,21,8,29.89,29.71,11,5,0,0.00
2013-5-27,96.8,82.6,65.3,27.5,21.3,14.2,17,11,6,29.80,29.62,14,4,0,0.00
2013-5-28,95.4,83.1,68.4,28.2,20.9,13.2,16,10,6,29.65,29.46,21,7,0,0.00
2013-5-29,91.0,80.6,70.9,35.4,28.2,13.5,22,15,8,29.64,29.50,23,9,0,0.00
2013-5-30,95.0,82.9,70.9,43.4,35.6,28.0,26,19,13,29.75,29.59,18,7,0,0.00
2013-5-31,97.5,85.8,68.5,41.0,35.4,27.5,28,17,12,29.79,29.62,16,6,0,0.00
2013-6-1,98.6,87.5,72.0,44.0,30.4,19.1,28,14,8,29.82,29.68,21,8,0,0.00
2013-6-2,97.5,80.6,70.5,59.5,51.0,43.7,61,37,24,29.89,29.64,26,11,0,0.00
2013-6-3,101.7,82.2,65.7,57.1,48.1,23.7,73,37,9,29.83,29.64,16,6,0,0.00
2013-6-4,100.8,87.4,68.9,47.1,38.0,27.5,41,20,9,29.81,29.65,16,5,0,0.00
2013-6-5,100.4,87.5,69.3,40.4,33.5,25.1,32,16,8,29.79,29.63,17,4,0,0.00
2013-6-6,92.8,78.8,69.3,49.8,45.3,26.3,47,32,17,29.82,29.69,13,6,0,0.00
2013-6-7,98.1,79.9,68.9,59.7,53.8,40.9,70,44,20,29.85,29.63,17,8,0,0.11
2013-6-8,105.8,84.2,65.3,55.4,45.9,29.1,65,33,10,29.75,29.54,24,6,0,0.00
2013-6-9,100.4,88.9,76.8,54.7,45.6,27.6,39,23,11,29.79,29.58,13,7,0,0.00
2013-6-10,105.6,90.4,74.7,53.0,48.3,37.5,40,25,14,29.85,29.69,12,6,0,0.00
2013-6-11,110.5,92.2,75.0,49.6,43.4,34.4,35,20,10,29.84,29.64,13,6,0,0.00
2013-6-12,106.7,91.5,76.8,54.1,44.6,33.7,35,21,11,29.85,29.69,15,6,0,0.00
2013-6-13,99.5,87.6,76.1,59.5,54.8,46.3,52,35,17,29.87,29.72,20,10,0,0.00
2013-6-14,96.6,81.3,68.4,61.2,56.3,49.8,68,45,24,29.85,29.68,17,6,0,0.08
2013-6-15,102.2,85.6,68.2,60.6,53.7,44.4,73,38,15,29.87,29.71,9,4,0,0.00
2013-6-16,105.8,88.8,74.5,54.2,50.0,46.4,46,28,15,29.89,29.74,10,5,0,0.00
2013-6-17,105.4,89.5,74.5,58.9,51.9,47.3,47,30,16,29.86,29.70,19,6,0,0.00
2013-6-18,102.9,85.7,70.2,60.3,54.9,47.1,63,38,17,29.89,29.69,15,7,0,0.00
2013-6-19,107.2,91.6,78.8,60.3,50.1,37.5,49,29,11,29.77,29.61,17,7,0,0.00
2013-6-20,103.5,89.4,78.8,53.7,48.2,39.6,42,26,13,29.83,29.67,21,8,0,0.00
2013-6-21,101.8,88.5,71.4,54.2,50.0,43.3,50,29,15,29.86,29.68,16,6,0,0.00
2013-6-22,101.7,89.7,76.6,58.6,47.6,30.9,47,27,12,29.86,29.64,16,6,0,0.00
2013-6-23,102.9,90.5,74.7,52.9,41.7,28.7,45,21,11,29.79,29.62,11,5,0,0.00
2013-6-24,102.4,94.9,88.5,50.2,44.5,39.5,27,18,14,29.82,29.67,12,5,0,0.00
2013-6-25,103.5,90.9,76.6,51.9,38.0,24.3,36,17,11,29.87,29.73,17,5,0,0.00
2013-6-26,106.9,91.4,75.7,31.3,24.8,19.5,16,10,5,29.89,29.76,12,4,0,0.00
2013-6-27,111.2,91.9,75.0,40.6,25.5,19.6,17,10,5,29.90,29.76,7,3,0,0.00
2013-6-28,100.8,90.1,77.5,46.9,41.5,37.7,32,19,12,30.00,29.84,17,5,0,0.00
2013-6-29,103.8,90.4,74.8,49.0,44.0,39.8,32,21,12,29.94,29.77,20,5,0,0.00
2013-6-30,99.9,88.1,75.4,58.9,49.0,43.1,56,27,17,29.90,29.72,19,7,0,0.01
2013-7-1,84.7,74.6,66.0,61.8,58.0,51.2,83,59,35,30.03,29.86,21,9,0,0.03
2013-7-2,89.8,77.4,64.0,63.4,53.6,46.3,86,49,24,30.06,29.83,12,6,0,0.00
2013-7-3,98.1,80.9,67.6,60.4,53.4,46.1,77,43,18,29.95,29.69,16,6,0,0.00
2013-7-4,100.9,83.4,68.7,55.2,51.4,46.1,59,36,18,29.81,29.63,13,4,0,0.00
2013-7-5,102.2,89.2,73.8,54.7,50.6,45.1,48,28,16,29.78,29.58,11,4,0,0.00
2013-7-6,104.9,90.3,75.9,58.5,54.2,48.3,53,32,16,29.76,29.58,11,5,0,0.00
2013-7-7,103.5,91.4,79.2,55.0,52.0,46.5,39,27,18,29.79,29.64,19,7,0,0.00
2013-7-8,98.2,86.0,77.9,56.5,53.1,48.9,43,33,20,29.90,29.77,15,7,0,0.00
2013-7-9,100.2,88.6,76.5,60.1,55.5,48.7,52,35,19,29.96,29.75,20,7,0,0.00
2013-7-10,98.6,87.7,75.7,59.9,57.1,52.7,57,37,24,29.96,29.75,14,8,0,0.00
2013-7-11,100.4,87.2,78.3,62.1,56.3,52.7,51,36,23,29.89,29.74,16,5,0,0.00
2013-7-12,101.7,88.0,76.1,58.9,54.1,50.8,54,33,19,29.86,29.68,12,5,0,0.00
2013-7-13,101.7,88.8,75.0,59.5,54.2,44.5,52,33,20,29.87,29.70,13,5,0,0.00
2013-7-14,104.4,89.9,76.1,61.8,53.2,47.4,57,31,18,29.86,29.62,14,5,0,0.01
2013-7-15,83.7,75.3,69.4,60.8,57.7,52.3,61,55,43,29.93,29.74,16,8,0,0.03
2013-7-16,87.3,78.0,67.1,55.5,52.2,47.5,64,43,26,29.99,29.85,15,8,0,0.00
2013-7-17,75.7,71.3,68.2,62.8,58.9,53.0,82,66,46,30.06,29.97,17,8,0,0.00
2013-7-18,76.5,68.1,64.4,66.4,63.7,60.8,97,86,65,30.05,29.95,12,5,0,0.21
2013-7-19,82.0,74.0,66.2,66.7,64.3,61.8,99,74,51,29.95,29.79,12,6,0,0.04
2013-7-20,87.8,78.0,66.7,66.0,62.8,58.4,92,62,42,29.87,29.70,14,5,0,0.00
2013-7-21,95.0,81.4,70.0,62.9,60.1,56.5,75,51,29,29.85,29.68,12,5,0,0.00
2013-7-22,98.8,80.9,71.6,64.7,61.7,55.9,73,55,27,29.85,29.71,12,6,0,0.00
2013-7-23,95.7,80.8,71.1,64.3,61.4,58.5,69,53,34,29.88,29.70,15,7,0,0.00
2013-7-24,96.8,81.6,70.3,67.3,63.3,58.6,87,58,30,29.92,29.74,18,6,0,0.00
2013-7-25,93.0,77.7,65.1,66.2,64.5,61.2,98,68,38,29.99,29.87,18,6,0,0.64
2013-7-26,96.8,81.8,73.4,68.1,64.9,61.9,83,59,33,29.99,29.89,19,5,0,0.00
2013-7-27,88.9,75.9,65.7,68.3,65.0,61.8,97,72,43,30.04,29.81,11,6,0,0.42
2013-7-28,94.1,78.5,67.8,66.1,63.6,59.1,89,63,36,29.88,29.70,22,4,0,0.00
2013-7-29,99.7,85.2,71.1,64.7,60.3,52.0,79,47,22,29.90,29.79,12,4,0,0.00
2013-7-30,99.5,85.7,74.1,61.1,58.3,51.5,61,41,23,30.00,29.89,14,5,0,0.00
2013-7-31,101.8,86.7,74.7,61.3,57.5,52.3,59,39,21,30.02,29.85,16,4,0,0.00
2013-8-1,98.1,87.9,77.2,63.0,56.7,50.9,61,37,22,29.99,29.80,14,5,0,0.00
2013-8-2,97.9,87.0,75.4,62.8,59.4,54.8,65,41,26,29.89,29.74,9,4,0,0.00
2013-8-3,99.5,87.3,77.7,61.6,57.7,54.0,53,38,24,29.91,29.77,10,4,0,0.00
2013-8-4,102.9,88.3,77.4,60.9,56.1,50.0,53,36,20,29.91,29.74,11,4,0,0.00
2013-8-5,98.6,87.5,71.2,64.4,56.1,48.9,79,36,21,29.90,29.73,14,6,0,0.14
2013-8-6,96.1,84.3,73.2,59.8,55.9,50.4,59,40,23,29.90,29.76,16,7,0,0.00
2013-8-7,92.3,82.6,73.0,59.2,56.0,51.5,58,41,26,29.91,29.75,16,6,0,0.00
2013-8-8,99.0,85.5,68.0,57.0,51.3,43.4,64,34,17,29.87,29.72,12,4,0,0.00
2013-8-9,100.9,86.7,70.0,53.9,47.9,43.7,44,28,16,29.90,29.77,14,4,0,0.00
2013-8-10,89.4,80.0,75.4,62.9,57.6,51.9,62,47,34,30.06,29.90,14,7,0,0.00
2013-8-11,95.5,81.3,65.8,63.7,58.0,50.8,87,50,24,30.03,29.82,16,8,0,0.00
2013-8-12,97.9,86.6,74.3,60.8,57.5,55.3,55,39,25,29.95,29.78,12,5,0,0.00
2013-8-13,98.2,86.8,75.4,61.6,58.1,51.9,59,39,27,29.94,29.79,14,6,0,0.00
2013-8-14,91.6,80.5,74.1,61.6,57.1,54.5,55,45,37,29.94,29.85,13,5,0,0.00
2013-8-15,79.7,78.7,77.4,58.9,57.0,55.0,53,48,43,29.94,29.91,8,5,0,0.00
2013-8-16,99.1,84.3,71.1,62.5,55.2,43.3,72,41,19,29.98,29.83,19,4,0,0.00
2013-8-17,102.4,87.7,72.3,57.1,50.5,43.1,56,30,14,29.97,29.78,17,4,0,0.00
2013-8-18,102.2,87.1,73.9,62.9,52.2,47.3,53,32,18,29.95,29.78,18,5,0,0.20
2013-8-19,100.4,84.8,72.3,57.1,52.3,39.2,56,36,15,29.93,29.77,11,4,0,0.00
2013-8-20,99.5,85.8,73.6,57.0,50.7,45.0,55,32,17,29.89,29.75,11,5,0,0.00
2013-8-21,96.3,84.7,73.4,57.4,48.3,33.8,57,31,17,29.92,29.78,14,6,0,0.00
2013-8-22,96.6,84.9,70.2,56.0,47.8,38.6,52,29,15,29.96,29.77,14,6,0,0.00
2013-8-23,92.5,81.2,73.4,56.3,54.2,46.3,53,41,21,29.92,29.76,19,8,0,0.00
2013-8-24,89.8,80.5,70.5,59.2,56.7,54.1,64,45,30,29.95,29.79,14,6,0,0.00
2013-8-25,94.6,83.9,71.4,59.0,55.1,51.2,65,39,24,30.00,29.85,15,7,0,0.00
2013-8-26,92.5,83.6,72.7,57.5,54.2,51.1,55,38,26,30.02,29.85,17,8,0,0.00
2013-8-27,88.5,79.1,72.7,65.4,58.3,53.4,78,50,34,29.95,29.81,21,7,0,0.04
2013-8-28,82.2,75.7,71.2,66.4,63.2,61.3,80,66,51,29.97,29.84,7,3,0,0.00
2013-8-29,81.7,73.3,65.5,68.4,65.5,63.1,99,78,55,30.06,29.94,11,3,0,0.71
2013-8-30,95.9,79.5,66.4,68.3,64.2,59.4,96,64,31,30.01,29.84,10,2,0,0.00
2013-8-31,103.5,83.8,69.1,64.9,59.1,52.0,84,48,21,29.88,29.72,9,2,0,0.00
2013-9-1,103.3,86.9,70.9,61.7,53.0,40.6,66,35,13,29.83,29.72,11,4,0,0.00
2013-9-2,97.0,84.6,72.7,58.9,54.5,47.5,50,37,24,29.93,29.78,22,7,0,0.00
2013-9-3,95.2,83.9,74.3,60.4,54.5,42.4,61,39,20,29.97,29.80,14,6,0,0.00
2013-9-4,94.8,83.1,70.5,55.7,51.9,49.4,53,35,22,29.99,29.88,14,6,0,0.00
2013-9-5,95.9,84.7,73.0,55.4,48.7,40.0,50,31,17,30.01,29.88,15,7,0,0.00
2013-9-6,94.1,84.5,73.0,56.0,53.4,49.8,52,35,23,30.01,29.81,14,6,0,0.00
2013-9-7,95.2,84.4,73.2,56.4,52.8,47.5,52,35,24,29.93,29.76,16,7,0,0.02
2013-9-8,93.6,83.7,71.8,56.0,52.1,45.5,57,35,22,29.86,29.66,15,7,0,0.00
2013-9-9,88.9,77.1,70.9,64.8,58.4,53.8,65,53,36,29.78,29.67,13,6,0,0.02
2013-9-10,80.2,70.5,66.4,67.0,65.3,61.1,99,85,56,29.87,29.76,13,5,0,0.72
2013-9-11,81.1,71.8,67.1,70.4,67.7,65.8,99,88,60,29.91,29.81,9,4,0,0.23
2013-9-12,69.8,67.2,65.1,67.8,66.1,63.0,99,96,88,29.90,29.82,14,6,0,2.01
2013-9-13,75.4,68.2,65.3,67.0,65.6,64.6,99,92,72,29.88,29.75,15,7,0,0.40
2013-9-14,87.4,74.6,65.1,64.6,59.4,53.7,96,64,33,29.82,29.70,10,6,0,0.00
2013-9-15,88.2,76.0,64.4,61.2,58.5,54.2,83,57,37,29.87,29.75,14,5,0,0.00
2013-9-16,84.7,76.0,65.8,63.5,60.1,56.2,82,59,39,29.98,29.84,14,8,0,0.00
2013-9-17,85.5,75.1,67.6,64.0,61.1,57.2,84,63,43,29.93,29.76,10,7,0,0.00
2013-9-18,88.2,77.6,67.6,62.2,60.5,57.4,79,57,39,29.84,29.67,13,6,0,0.00
2013-9-19,88.0,76.3,68.7,66.7,63.2,60.9,86,65,45,29.80,29.67,21,6,0,0.00
2013-9-20,85.3,73.9,63.9,65.4,60.3,54.5,95,66,36,29.91,29.75,14,5,0,0.00
2013-9-21,82.0,71.5,62.4,59.7,55.6,51.6,83,60,37,29.95,29.77,14,5,0,0.00
2013-9-22,86.2,74.3,60.4,55.8,53.1,49.7,80,50,29,29.78,29.54,11,5,0,0.00
2013-9-23,89.2,76.8,68.2,56.0,44.6,36.4,64,34,18,29.83,29.60,14,5,0,0.00
2013-9-24,91.4,74.1,59.9,41.7,38.5,33.8,48,30,14,29.97,29.80,11,4,0,0.00
2013-9-25,93.7,77.0,58.6,53.2,46.0,39.5,57,35,21,29.81,29.59,11,3,0,0.00
2013-9-26,90.3,81.6,67.8,51.9,46.6,39.8,49,30,20,29.73,29.60,11,4,0,0.00
2013-9-27,89.2,78.9,70.7,60.1,52.0,39.9,64,41,22,29.76,29.59,19,6,0,0.00
2013-9-28,81.9,68.8,58.1,43.3,29.0,22.5,41,24,14,30.02,29.77,11,6,0,0.00
2013-9-29,86.7,71.0,52.5,42.9,36.5,27.7,50,30,16,30.06,29.85,7,3,0,0.00
2013-9-30,90.7,73.1,55.0,41.6,34.7,23.4,52,28,11,29.87,29.72,14,3,0,0.00
2013-10-1,91.6,75.9,58.1,36.1,28.5,17.4,37,20,7,29.84,29.73,15,4,0,0.00
2013-10-2,88.2,69.7,61.0,41.8,34.7,27.2,36,28,18,29.86,29.73,6,2,0,0.00
2013-10-3,87.1,71.2,59.7,41.9,37.0,27.8,51,31,12,29.80,29.64,12,3,0,0.00
2013-10-4,86.5,73.4,64.9,46.5,39.4,32.6,47,31,16,29.80,29.68,14,5,0,0.00
2013-10-5,77.4,64.5,53.2,38.7,23.5,16.9,37,21,14,30.03,29.80,14,7,0,0.00
2013-10-6,83.5,63.1,47.5,31.6,24.8,18.2,40,24,13,30.12,29.98,10,4,0,0.00
2013-10-7,84.0,65.5,47.1,32.1,29.0,24.2,49,28,13,30.11,29.89,8,4,0,0.00
2013-10-8,86.5,68.5,52.0,41.0,32.9,20.9,47,28,16,29.90,29.69,11,3,0,0.00
2013-10-9,86.4,74.7,57.0,41.9,37.3,33.8,44,27,17,29.81,29.66,10,4,0,0.00
2013-10-10,84.7,73.1,62.1,46.3,38.7,31.4,53,31,15,29.76,29.60,21,8,0,0.00
2013-10-11,80.1,67.4,54.7,40.3,37.6,34.1,50,34,22,29.86,29.74,16,4,0,0.00
2013-10-12,82.2,69.0,50.5,42.8,37.3,30.8,56,33,19,29.93,29.79,13,6,0,0.00
2013-10-13,81.1,71.3,60.1,55.1,46.6,40.8,60,42,30,29.94,29.81,8,4,0,0.00
2013-10-14,79.0,71.9,64.8,49.1,47.4,45.4,53,42,34,29.90,29.78,18,5,0,0.00
2013-10-15,71.8,65.9,56.5,55.4,49.5,42.2,61,56,48,29.87,29.76,14,7,0,0.00
2013-10-16,77.7,63.3,55.4,51.3,39.9,23.4,78,48,16,29.93,29.80,11,5,0,0.00
2013-10-17,77.9,61.4,45.1,40.4,29.3,22.0,60,33,14,29.95,29.74,10,3,0,0.00
2013-10-18,79.3,62.3,45.5,33.4,25.9,19.5,52,28,11,29.94,29.75,11,3,0,0.00
2013-10-19,77.4,58.0,42.3,34.8,31.2,28.4,62,39,18,30.06,29.84,11,3,0,0.00
2013-10-20,79.2,61.5,42.3,34.5,27.4,17.4,67,32,11,29.87,29.69,11,3,0,0.00
2013-10-21,72.7,60.5,46.8,36.6,29.6,16.1,50,32,21,30.00,29.75,11,5,0,0.00
2013-10-22,77.4,60.9,45.5,40.5,36.0,31.5,65,42,21,30.10,29.94,7,4,0,0.00
2013-10-23,84.9,63.8,46.9,36.9,33.3,30.3,53,34,16,30.03,29.85,10,4,0,0.00
2013-10-24,83.3,67.8,51.4,42.9,36.5,30.9,46,33,23,30.01,29.83,12,7,0,0.00
2013-10-25,80.4,68.7,56.7,45.5,41.0,34.4,63,38,24,30.03,29.86,17,7,0,0.00
2013-10-26,77.7,63.2,51.4,46.4,40.9,28.7,77,48,17,30.07,29.93,15,7,0,0.00
2013-10-27,80.6,60.8,48.4,43.6,40.1,37.7,67,48,27,30.02,29.73,6,3,0,0.00
2013-10-28,79.2,62.4,53.6,43.6,41.0,29.6,68,49,17,29.83,29.70,9,3,0,0.00
2013-10-29,68.7,65.9,62.1,31.7,29.8,28.1,30,26,22,29.79,29.72,5,2,0,0.00
2013-10-30,71.2,64.4,57.7,51.2,42.5,30.2,59,45,29,29.83,29.67,16,6,0,0.02
2013-10-31,70.5,59.2,46.0,31.0,20.9,10.8,44,25,10,29.95,29.78,15,5,0,0.00
2013-11-1,72.3,58.7,42.8,28.7,23.2,14.4,42,26,17,30.04,29.84,11,4,0,0.00
2013-11-9,64.2,63.6,63.0,38.3,38.2,38.1,40,39,38,29.94,29.94,0,0,0,0.00
2013-11-29,65.8,51.2,38.5,35.9,32.9,27.8,65,51,33,30.16,30.02,6,4,0,0.00
2013-11-30,60.3,48.5,40.5,37.1,33.9,31.8,73,58,42,30.14,30.08,8,6,0,0.00
2013-12-1,48.2,48.2,48.2,35.4,35.4,35.4,61,61,61,30.08,30.05,6,3,0,0.00
2013-12-2,57.7,55.2,52.9,25.5,20.0,16.5,32,25,21,29.75,29.71,6,2,0,0.00
2013-12-3,72.9,59.0,45.0,37.6,23.4,17.5,44,26,15,29.72,29.56,17,6,0,0.00
2013-12-4,70.7,61.9,56.1,44.6,38.2,29.8,60,44,25,29.67,29.55,21,11,0,0.00
2013-12-6,52.9,42.8,36.5,35.4,30.9,28.4,93,66,39,29.97,29.82,8,3,0,0.22
2013-12-24,39.4,39.3,39.2,26.9,26.8,26.7,61,60,60,30.16,30.16,3,2,0,0.00
2013-12-26,44.4,40.1,34.9,24.7,23.9,23.2,62,52,44,30.30,30.26,4,2,0,0.00
2013-12-27,56.7,41.5,28.8,28.7,24.5,20.9,75,53,30,30.37,30.24,11,4,0,0.00
2013-12-28,56.1,40.2,27.3,30.2,23.9,19.0,72,53,37,30.25,29.96,14,5,0,0.00
2013-12-29,52.9,44.9,33.4,27.4,24.7,21.0,60,45,35,30.21,29.95,17,7,0,0.00
2013-12-30,56.8,40.6,24.8,26.2,21.9,18.6,78,49,29,30.31,30.19,6,2,0,0.00
2013-12-31,59.9,44.1,30.9,24.6,21.7,18.3,60,43,24,30.31,30.13,8,2,0,0.00
2014-1-1,64.8,46.7,30.6,25.7,23.3,20.9,71,42,20,30.21,30.05,8,3,0,0.00
2014-1-2,58.6,46.8,36.7,28.7,26.0,21.4,71,46,27,30.37,30.20,15,5,0,0.00